Tracking 29511 objects as of 15-Sep-2024
HD Live streaming from Space Station
objects crossing your sky now

FENGYUN 1C DEB

Track FENGYUN 1C DEB now!
10-day predictions


NORAD ID: 37714
Int'l Code: 1999-025EMF
Perigee: 780.0 km
Apogee: 858.7 km
Inclination: 98.9 °
Period: 101.1 minutes
Semi major axis: 7190 km
RCS: 0.001 m2 (small)
Launch date: May 10, 1999
Source: People's Republic of China (PRC)
Launch site: Taiyaun Space Center, China (TSC)

Note: This is SATELLITE DEBRIS
Your satellite tracking list
Your tracking list is empty




NASA's NSSDC Master Catalog

Two Line Element Set (TLE):
1 37714U 99025EMF 24258.01326168  .00017710  00000-0  76109-2 0  9996
2 37714  98.8872 355.1629 0054753 323.9573  35.7918 14.23900864510166
Source of the keplerian elements: AFSPC